CDT,Max TemperatureF,Mean TemperatureF,Min TemperatureF,Max Dew PointF,MeanDew PointF,Min DewpointF,Max Humidity, Mean Humidity, Min Humidity, Max Sea Level PressureIn, Mean Sea Level PressureIn, Min Sea Level PressureIn, Max VisibilityMiles, Mean VisibilityMiles, Min VisibilityMiles, Max Wind SpeedMPH, Mean Wind SpeedMPH, Max Gust SpeedMPH,PrecipitationIn, CloudCover, Events, WindDirDegrees
2013-5-1,81,65,47,59,53,44,86,61,36,30.16,30.05,29.92,10,10,6,17,10,23,0.00,0,,165
2013-5-2,52,46,40,41,39,36,89,76,63,30.24,30.20,30.15,10,10,8,23,12,32,0.01,5,Rain,5
2013-5-3,47,43,38,45,40,36,96,89,82,30.17,30.06,29.98,10,9,3,20,11,26,0.20,8,Rain-Thunderstorm,12
2013-5-4,66,56,46,47,44,41,93,73,52,30.04,30.01,29.98,10,10,8,14,7,17,0.00,1,,32
2013-5-5,64,54,44,45,41,36,82,65,47,30.06,30.03,30.00,10,10,10,16,7,21,0.00,0,,17
2013-5-6,66,56,45,44,39,35,76,57,37,30.05,30.02,29.99,10,10,10,14,5,17,0.00,3,,19
2013-5-7,71,57,43,45,41,36,86,61,35,30.06,30.02,29.99,10,10,9,12,5,14,0.00,0,,25
2013-5-8,74,59,43,50,43,40,96,67,37,30.04,30.00,29.97,10,9,6,10,3,13,0.00,0,,77
2013-5-9,66,55,44,55,46,40,100,78,56,29.97,29.93,29.88,10,8,2,16,6,26,0.29,5,Rain,54
2013-5-10,44,43,42,43,41,37,100,88,76,30.00,29.91,29.79,10,7,2,20,8,26,0.19,8,Rain,349
2013-5-11,56,49,41,49,37,26,100,68,35,30.03,29.92,29.80,10,7,2,21,9,36,T,4,,255
2013-5-12,53,44,34,33,29,25,82,59,35,30.12,30.09,30.03,10,10,10,17,7,23,0.00,5,,291
2013-5-13,52,41,30,35,32,29,100,75,49,30.20,30.14,30.00,10,10,7,16,7,21,0.00,2,,112
2013-5-14,86,68,49,57,48,36,72,53,34,29.96,29.75,29.56,10,10,6,22,10,29,T,1,Rain,190
2013-5-15,79,65,51,57,50,47,83,60,36,29.83,29.74,29.55,10,10,10,22,6,36,0.00,0,,212
2013-5-16,74,62,49,52,45,37,89,64,38,29.97,29.91,29.82,10,10,10,14,6,17,0.00,1,,32
2013-5-17,60,55,49,46,44,38,72,65,57,30.09,30.03,29.96,10,10,10,17,8,23,T,5,Rain,46
2013-5-18,72,60,47,58,50,44,93,74,55,30.07,30.02,29.96,10,8,5,10,4,14,0.00,2,,86
2013-5-19,78,65,51,64,57,50,100,82,64,29.96,29.88,29.76,8,5,2,17,5,21,0.00,0,,122
2013-5-20,87,74,60,67,59,53,97,64,31,29.76,29.72,29.67,10,8,2,26,11,33,0.26,2,Rain-Thunderstorm,187
2013-5-21,81,72,63,64,61,56,93,69,45,29.72,29.65,29.62,10,10,5,25,12,33,0.01,3,Rain,194
2013-5-22,72,61,50,66,60,48,100,89,78,29.77,29.66,29.61,10,5,0,13,5,18,1.17,7,Fog-Rain,84
2013-5-23,52,47,41,52,42,33,100,83,65,30.32,30.01,29.76,10,8,2,23,13,36,0.04,5,Rain,3
2013-5-24,52,44,35,35,33,31,100,75,50,30.45,30.39,30.32,10,10,10,17,6,23,0.00,0,,32
2013-5-25,55,47,38,42,38,35,92,71,50,30.42,30.37,30.32,10,10,10,10,4,14,0.00,5,,42
2013-5-26,61,49,36,45,41,35,92,73,53,30.33,30.26,30.16,10,10,8,12,6,15,T,3,Rain,62
2013-5-27,55,52,49,50,48,42,100,86,71,30.15,30.00,29.89,10,4,1,16,9,23,0.08,8,Rain,86
2013-5-28,76,63,49,70,60,48,100,85,69,29.88,29.78,29.69,10,5,0,23,8,30,0.21,6,Fog-Rain-Thunderstorm,172
2013-5-29,78,70,61,64,62,58,100,80,60,29.94,29.87,29.75,10,10,6,16,7,21,T,1,,168
2013-5-30,84,74,63,69,64,61,87,73,58,29.91,29.84,29.74,10,9,4,30,13,39,0.14,2,Rain-Thunderstorm,181
2013-5-31,79,71,62,66,63,60,93,76,58,29.84,29.79,29.69,10,9,2,25,12,31,0.14,4,Rain-Thunderstorm,181